カタログに戻る

NATO 4A

運用中通信GEO
NORAD 21047·PAYLOAD· XX

打ち上げ Jan 8, 1991 から Cape Canaveral Space Force Station

Loading…

TLE

最新Source: Space-Track

元期: Sep 14, 2026, 12:54 UTC

1 21047U 91001A   26257.53813738 -.00000218  00000-0  00000-0 0  9997
2 21047  13.0191 354.2549 0006746 229.4953 136.7715  0.98285832129007

AllMySatでNATO 4Aをリアルタイム追跡

Download on the App Store